TimeMST,TemperatureF,Dew PointF,Humidity,Sea Level PressureIn,VisibilityMPH,Wind Direction,Wind SpeedMPH,Gust SpeedMPH,PrecipitationIn,Events,Conditions,WindDirDegrees,DateUTC
12:53 AM,26.6,12.2,55,30.14,10.0,ESE,15.0,-,N/A,,Clear,120,2013-03-05 07:53:00
1:53 AM,25.0,12.9,60,30.23,10.0,ESE,16.1,-,N/A,,Clear,120,2013-03-05 08:53:00
2:53 AM,25.0,12.9,60,30.24,10.0,SE,16.1,-,N/A,,Clear,130,2013-03-05 09:53:00
3:53 AM,24.1,12.0,60,30.24,10.0,ESE,16.1,-,N/A,,Clear,120,2013-03-05 10:53:00
4:53 AM,21.9,12.0,66,30.24,10.0,SE,15.0,-,N/A,,Clear,130,2013-03-05 11:53:00
5:53 AM,21.9,12.0,66,30.24,10.0,SE,17.3,23.0,N/A,,Clear,130,2013-03-05 12:53:00
6:53 AM,21.9,12.0,66,30.25,10.0,ESE,16.1,-,N/A,,Clear,120,2013-03-05 13:53:00
7:53 AM,19.9,14.0,78,30.25,10.0,SSW,3.5,-,N/A,,Clear,200,2013-03-05 14:53:00
8:53 AM,24.1,15.1,69,30.24,10.0,Variable,3.5,-,N/A,,Clear,0,2013-03-05 15:53:00
9:53 AM,26.1,14.0,60,30.22,10.0,SE,8.1,-,N/A,,Clear,140,2013-03-05 16:53:00
10:53 AM,30.0,15.1,54,30.19,10.0,South,6.9,-,N/A,,Clear,180,2013-03-05 17:53:00
11:53 AM,35.1,14.0,42,30.15,10.0,ESE,9.2,-,N/A,,Clear,120,2013-03-05 18:53:00
12:53 PM,39.0,12.9,34,30.09,10.0,ESE,15.0,-,N/A,,Clear,110,2013-03-05 19:53:00
1:53 PM,39.9,14.0,35,30.05,10.0,ESE,10.4,-,N/A,,Overcast,120,2013-03-05 20:53:00
2:53 PM,41.0,14.0,33,30.03,10.0,ESE,11.5,-,N/A,,Overcast,110,2013-03-05 21:53:00
3:53 PM,42.1,15.1,34,30.01,10.0,East,9.2,-,N/A,,Mostly Cloudy,100,2013-03-05 22:53:00
4:53 PM,39.9,18.0,41,30.01,10.0,Calm,Calm,-,N/A,,Overcast,0,2013-03-05 23:53:00
5:53 PM,39.0,19.0,45,30.00,10.0,NNW,3.5,-,N/A,,Overcast,330,2013-03-06 00:53:00
6:53 PM,37.0,21.9,54,30.00,10.0,NNW,5.8,-,N/A,,Overcast,330,2013-03-06 01:53:00
7:53 PM,35.1,23.0,61,30.01,10.0,NNW,3.5,-,N/A,,Overcast,340,2013-03-06 02:53:00
8:53 PM,34.0,24.1,67,30.00,10.0,Calm,Calm,-,N/A,,Overcast,0,2013-03-06 03:53:00
9:53 PM,34.0,24.1,67,29.99,10.0,Calm,Calm,-,N/A,,Overcast,0,2013-03-06 04:53:00
10:53 PM,34.0,23.0,64,29.98,10.0,NNW,3.5,-,N/A,,Overcast,330,2013-03-06 05:53:00
11:53 PM,34.0,21.9,61,29.95,10.0,Calm,Calm,-,N/A,,Scattered Clouds,0,2013-03-06 06:53:00